Location: Monte Gutturgios
(40.2500°N, 9.5167°E)
Time: 05:55:18
(UTC+00:00)

Daily predictions for brighter satellites

Satellite Brightness Start Highest point End
(mag) Time Altitude Azimuth Time Altitude Azimuth Time Altitude Azimuth
Helios 1A 3.9 00:05:57 40° ENE 00:06:07 41° ENE 00:10:03 10° N
GP-B 3.5 00:05:45 10° N 00:09:41 54° WNW 00:09:41 54° WNW
Cosmos 2237 Rocket 3.0 00:08:47 35° W 00:10:12 40° WNW 00:15:30 10° N
Aureole 3 4.0 00:06:58 10° N 00:09:43 50° NNE 00:09:43 50° NNE
EO 1 Del DPAF 4.2 00:07:17 10° N 00:10:03 43° NNW 00:10:03 43° NNW
Cosmos 1812 Rocket 3.7 00:10:25 10° N 00:14:18 70° NNW 00:14:18 70° NNW
Meteor 1-11 4.1 00:16:38 65° SW 00:17:21 75° W 00:22:58 10° N
Meteor 1-27 4.4 00:14:44 10° N 00:20:15 63° ENE 00:21:37 48° SE
Cosmos 1777 Rocket 3.8 00:15:32 10° NNW 00:20:51 82° WSW 00:21:16 75° SSW
Cosmos-2242 3.2 00:16:40 10° N 00:21:02 64° E 00:21:03 64° E
NOSS 2-3 (D) 4.5 00:22:32 37° E 00:22:32 37° E 00:26:02 10° NE
ATLAS 5 CENTAUR R/B 4.3 00:21:53 32° S 00:24:13 33° SSE 00:56:48 10° ESE
USA 267 4.3 00:27:12 26° WSW 00:27:12 26° WSW 00:31:18 10° WNW
Cosmos 2369 Rocket 4.2 00:21:16 10° N 00:25:59 26° NE 00:30:40 10° ESE
SL-4 R/B 2.7 00:27:43 46° N 00:27:43 46° N 00:30:50 10° NE
Helios 1B rocket 4.1 00:24:16 10° NE 00:27:38 24° E 00:27:47 24° E
CZ-2D R/B 2.9 00:24:00 10° NNE 00:28:53 40° E 00:29:56 36° SE
Cosmos 1825 3.7 00:29:22 27° E 00:29:22 27° E 00:32:29 10° NNE
Cosmos 1869 4.0 00:25:54 10° N 00:29:53 49° E 00:29:58 49° E
Resurs 1-4 Rocket 2.8 00:25:37 10° NNE 00:30:41 44° E 00:31:49 38° SE
Cosmos 2297 3.7 00:33:26 10° NNW 00:39:05 76° ENE 00:41:08 41° SE
NOSS 2-3 (C) 3.6 00:39:20 64° E 00:39:20 64° E 00:43:36 10° NE
Exosat Rocket 4.5 00:37:19 39° SSE 00:39:48 58° ESE 00:45:29 10° NNE
Cosmos 1825 Rocket 3.5 00:42:36 74° W 00:42:39 74° W 00:47:08 10° N
Cosmos 2278 Rocket 3.6 00:40:09 10° NW 00:43:47 22° W 00:43:47 22° W
Cosmos 2221 4.2 00:46:16 10° NNE 00:50:00 28° ENE 00:51:59 20° ESE
SJ 16-02 1.2 00:46:56 10° NNW 00:51:19 79° WSW 00:51:20 79° WSW
ADEOS II 3.4 00:49:45 10° NNE 00:54:27 32° E 00:56:36 24° SE
MOZ.5/SAFIR/RUBIN 5/SL-8 3.7 00:56:36 64° SW 00:57:03 69° WSW 01:01:47 10° NNW
Cosmos 1634 Rocket 4.4 00:53:25 10° NNW 00:59:23 45° W 01:00:50 39° SW
Cosmos 1953 Rocket 3.5 01:03:15 64° WSW 01:03:32 67° W 01:07:54 10° N
Cosmos 2279 Rocket 4.0 00:59:02 10° NNW 01:05:13 66° W 01:07:15 43° SSW
USA 229 DEB 3.5 01:09:30 41° SSW 01:11:58 89° ESE 01:18:44 10° NE
USA 229 3.5 01:09:34 41° SSW 01:12:01 88° ESE 01:18:48 10° NE
Cosmos 540 Rocket 4.1 01:11:08 33° SSE 01:12:53 47° ESE 01:17:46 10° NNE
IDEFIX/ARIANE 42P 4.1 01:15:11 10° NE 01:19:43 29° E 01:23:08 15° SSE
Cosmos 1892 4.1 01:20:42 27° WNW 01:20:42 27° WNW 01:23:56 10° NNW
Cosmos 1408 3.8 01:21:36 30° WNW 01:21:36 30° WNW 01:24:36 10° NNW
Cosmos 1943 3.3 01:20:06 37° S 01:22:16 66° ESE 01:27:52 10° NNE
Cosmos 1603 3.8 01:22:06 38° S 01:24:21 72° ESE 01:30:01 10° NNE
NOSS 3-1 (C) 3.9 01:22:01 29° WSW 01:24:25 46° NW 01:30:21 10° NNE
SL-16 R/B 2.5 01:22:25 32° S 01:25:30 72° WSW 01:31:42 10° NNW
Cosmos 1842 Rocket 3.7 01:21:51 10° N 01:26:11 70° E 01:27:56 35° SSE
Cosmos 2098 Rocket 3.8 01:23:20 33° S 01:26:22 87° E 01:31:45 10° N
X-37B 0.7 01:28:10 70° N 01:28:10 70° N 01:31:16 10° ENE
NOSS 3-1 (A) 3.3 01:29:33 37° SW 01:31:43 70° NW 01:37:49 10° NNE
Cosmos 468 Rocket 4.1 01:30:05 39° SW 01:31:47 60° WNW 01:36:56 10° NNE
Landsat 4 3.8 01:29:24 10° NNE 01:33:11 68° ESE 01:34:07 47° SSE
DELTA 2 R/B (1) 4.1 01:34:40 34° S 01:36:00 40° SSE 01:41:08 10° E
Nadezhda 4 Rocket 4.0 01:35:59 33° SSW 01:38:48 65° W 01:44:55 10° N
Meteor 2-8 Rocket 4.4 01:34:02 10° N 01:40:11 85° W 01:44:20 22° S
Cosmos 2026 Rocket 4.3 01:37:28 20° SSE 01:41:49 63° E 01:48:01 10° NNE
Cosmos 1943 Rocket 2.6 01:37:41 10° NW 01:42:47 40° WSW 01:44:18 33° SW
Cosmos 405 Rocket 3.8 01:43:20 27° W 01:43:35 28° WNW 01:46:49 10° NNW
Cosmos 2058 3.4 01:43:57 37° WSW 01:44:45 42° WNW 01:48:39 10° N
NPP 4.1 01:41:00 10° N 01:46:11 49° WNW 01:48:32 30° SW
SL-16 R/B 4.0 01:44:07 14° W 01:47:15 21° NW 01:51:28 10° N
Cosmos 1242 Rocket 2.4 01:53:16 10° N 01:56:51 82° W 01:58:23 33° S
Cosmos 1763 Rocket 4.3 01:54:55 25° WSW 01:57:05 36° WNW 02:01:46 10° N
Meteor 1-29 3.3 01:54:39 10° N 01:57:57 47° WNW 01:58:43 39° WSW
SeaSat 1 2.4 01:53:01 10° NNE 01:57:59 84° ESE 02:00:43 27° SSW
USA 281 3.4 01:53:14 10° SSE 01:59:46 75° ENE 02:06:21 10° NNW
DELTA 2 DEB (DPAF) 4.1 01:56:49 19° SSE 02:00:02 86° WSW 02:04:31 10° NNW
Cosmos 921 Rocket 2.9 01:58:13 32° SSW 02:00:10 89° WNW 02:04:24 10° NNE
CREW DRAGON DEMO-1 DEB 3.2 02:02:26 37° NW 02:02:43 39° NNW 02:05:06 10° NE
Helios 1B rocket 3.8 01:59:25 10° NNW 02:02:48 25° WNW 02:04:05 21° W
Cosmos 1825 4.0 02:04:08 17° W 02:04:43 17° WNW 02:07:18 10° NNW
MSX 4.3 01:59:10 10° NNE 02:04:50 56° E 02:09:55 13° S
Cosmos 1627 Rocket 4.5 02:01:07 21° S 02:05:32 82° W 02:11:55 10° N
SL-4 R/B 4.4 02:05:09 10° NW 02:07:28 16° NNW 02:09:42 10° NNE
IRS-1D 3.6 02:02:23 10° N 02:07:32 68° WNW 02:10:36 24° SSW
USA 307 4.1 02:06:17 20° S 02:08:18 30° SE 02:12:02 10° ENE
CZ-2D R/B 3.5 02:04:32 10° NNW 02:08:42 25° WNW 02:11:15 17° WSW
Cosmos 2263 4.1 02:04:25 10° NNW 02:10:05 68° WSW 02:15:39 10° SSE
Resurs 1-4 Rocket 3.6 02:06:02 10° NNW 02:10:12 24° WNW 02:12:54 16° WSW
Cosmos 2369 Rocket 2.4 02:04:46 10° NW 02:10:16 48° WSW 02:14:50 14° S
Cosmos 1092 Rocket 4.1 02:09:25 22° SSW 02:13:21 58° W 02:19:24 10° N
Cosmos 1633 2.9 02:14:15 30° SW 02:15:29 44° W 02:18:53 10° N
CBERS-1 4.0 02:11:07 10° N 02:16:14 71° WNW 02:19:47 20° SSW
ADEOS Rocket 3.5 02:09:04 11° S 02:16:15 59° W 02:23:12 10° NNW
Cosmos 1932 4.4 02:11:47 10° NNW 02:18:01 84° WSW 02:24:13 10° SSE
Cosmos 1076 Rocket 4.1 02:16:07 25° SW 02:18:02 40° WNW 02:22:03 10° N
Cosmos 1437 Rocket 4.1 02:17:26 10° NW 02:20:25 21° W 02:21:07 20° WSW
NOSS 2-2 (D) 3.0 02:21:04 25° SSW 02:22:55 70° ESE 02:26:26 10° NE
Meteor 2-3 Rocket 3.8 02:18:01 13° S 02:23:06 79° E 02:28:42 10° NNE
USA 308 3.7 02:21:12 20° SSW 02:23:44 41° SE 02:27:45 10° ENE
Meteor 2-15 Rocket 4.5 02:18:18 10° NNW 02:24:23 65° W 02:30:26 10° S
Cosmos 2221 3.9 02:24:04 10° NW 02:27:22 22° W 02:28:47 18° WSW
Aureole 3 Rocket 3.6 02:24:46 10° NNW 02:28:09 36° W 02:31:03 18° SSW
Lacrosse 4 Rocket 3.4 02:25:08 10° N 02:28:49 31° NE 02:32:26 10° ESE
Cosmos 2151 3.3 02:29:37 20° SSW 02:32:21 50° W 02:36:28 10° N
ADEOS II 3.1 02:29:28 10° N 02:34:02 31° WNW 02:37:32 15° WSW
Cosmos 1656 Rocket 4.0 02:30:26 10° NW 02:35:51 47° WSW 02:41:14 10° S
Cosmos 1606 4.0 02:33:28 10° NW 02:36:37 24° W 02:38:17 18° SW
Meteor 1-26 Rocket 4.4 02:33:14 10° N 02:39:02 81° E 02:44:59 10° SSE
Cosmos 841 Rocket 4.5 02:36:01 16° WSW 02:39:30 33° WNW 02:44:08 10° N
SL-08 R/B 3.5 02:36:12 10° SSE 02:40:47 72° ENE 02:45:27 10° N
ATLAS 2A CENTAUR R/B 4.3 02:39:04 12° S 02:41:21 18° SSE 02:46:51 10° ESE
CZ-2D R/B 3.8 02:38:01 10° NNE 02:42:15 64° E 02:46:20 10° S
ATLAS 5 CENTAUR R/B 1.3 02:39:49 17° SW 02:42:45 88° NW 02:47:02 10° NE
IRS-1C 4.2 02:38:12 10° N 02:43:32 71° WNW 02:48:42 11° SSW
Cosmos 1937 Rocket 4.4 02:39:54 10° NW 02:44:31 31° W 02:49:06 10° SSW
Cosmos 1437 3.6 02:42:21 10° NW 02:44:41 24° W 02:45:46 19° SW
USA 305 3.0 02:41:45 16° SW 02:45:01 71° SE 02:49:16 10° NE
IRIDIUM 104 4.4 02:41:05 10° N 02:46:15 64° W 02:51:23 10° S
Okean 3 Rocket 3.7 02:42:10 10° S 02:46:33 78° E 02:50:56 10° N
CZ-4C R/B 3.8 02:49:12 12° SSW 02:52:03 31° W 02:55:12 10° NW
Cosmos 1766 Rocket 3.6 02:51:36 10° S 02:56:01 80° W 03:00:29 10° N
Cosmos 1782 2.7 02:52:53 10° N 02:56:54 82° W 03:00:53 10° S
USA 290 3.4 02:56:12 13° WSW 02:58:33 29° WNW 03:01:26 10° N
IDEFIX/ARIANE 42P 3.5 02:54:35 10° N 02:59:17 34° WNW 03:03:56 10° SW
Cosmos 1933 4.0 02:59:17 10° NNW 03:03:02 36° W 03:06:47 10° SSW
NOSS 2-2 (E) 4.3 03:00:05 11° WSW 03:03:03 29° NW 03:06:20 10° NNE
Cosmos 1408 Rocket 4.1 03:00:12 10° S 03:04:33 62° E 03:08:58 10° NNE
X-37B 2.2 03:02:07 10° WNW 03:05:02 33° N 03:07:58 10° ENE
ASTEX 1 3.8 03:01:07 10° SSW 03:05:52 45° W 03:10:37 10° NNW
USA 306 2.9 03:02:49 11° SW 03:06:55 78° NW 03:11:10 10° NE
Cosmos 1553 Rocket 4.3 03:06:06 10° NNW 03:12:08 48° W 03:18:02 10° SSW
CZ-2C R/B 3.1 03:08:50 10° NNE 03:12:46 70° ESE 03:16:34 10° S
ARIANE 5 R/B 2.9 03:08:03 10° N 03:12:49 46° WNW 03:17:33 10° SW
Cosmos 1125 Rocket 3.6 03:07:35 10° NNW 03:12:51 84° ENE 03:18:08 10° SSE
Cosmos 2292 Rocket 4.4 03:11:41 10° SW 03:14:14 19° W 03:16:33 10° NNW
S3M 4.0 03:08:38 10° NNW 03:14:44 69° W 03:20:52 10° S
NOSS 2-2 (C) 4.3 03:12:13 10° WSW 03:15:16 29° NW 03:18:28 10° NNE
CZ-4C R/B 3.3 03:13:14 10° S 03:17:28 35° ESE 03:22:23 10° NE
Cosmos 1151 Rocket 3.2 03:14:18 10° NNW 03:18:27 51° W 03:22:34 10° S
DELTA 2 R/B (1) 3.6 03:16:35 10° WSW 03:22:08 79° S 03:27:43 10° E
